Location: Pittsburgh
(40.4410°N, 79.9960°W)
Time: 05:23:44
(UTC-04:00)

ARIANE 6 FM1 Upper Stage - Pass Details

Date: 12 March 2026
Orbit: 525 x 604 km, 62.0° (Epoch: 20 April)

Event Time Altitude Azimuth Distance (km) Brightness Sun altitude
Exits shadow 06:46:41 14° 278° (W) 1,580 4.3 -10.3°
Maximum altitude 06:48:56 21° 318° (NW) 1,262 4.1 -9.8°
Drops below altitude 10° 06:52:00 10° 8° (N) 1,791 5.4 -9.3°
Sets 06:54:38 0° 25° (NNE) 2,675 6.5 -8.8°
